Time,TemperatureF,DewpointF,PressureIn,WindDirection,WindDirectionDegrees,WindSpeedMPH,WindSpeedGustMPH,Humidity,HourlyPrecipIn,Conditions,Clouds,dailyrainin,SolarRadiationWatts/m^2,SoftwareType,DateUTC
2013-11-05 00:03:00,32.0,30.0,-100.00,WSW,237,5.0,12.0,93,0.00,,,0.22,0.000000,,2013-11-05 06:03:00,
2013-11-05 00:42:00,31.0,28.0,-100.00,WSW,240,5.0,15.0,88,0.00,,,0.22,0.000000,,2013-11-05 06:42:00,
2013-11-05 00:52:00,31.0,28.0,-100.00,WSW,240,5.0,15.0,88,0.00,,,0.22,0.000000,,2013-11-05 06:52:00,
2013-11-05 01:02:00,31.0,28.0,-100.00,WSW,240,5.0,15.0,88,0.00,,,0.22,0.000000,,2013-11-05 07:02:00,
2013-11-05 01:43:00,30.0,28.0,-100.00,WSW,245,7.0,15.0,91,0.00,,,0.22,0.000000,,2013-11-05 07:43:00,
2013-11-05 01:52:00,30.0,28.0,-100.00,WSW,245,7.0,15.0,91,0.00,,,0.22,0.000000,,2013-11-05 07:52:00,
2013-11-05 02:02:00,30.0,28.0,-100.00,WSW,245,7.0,15.0,91,0.00,,,0.22,0.000000,,2013-11-05 08:02:00,
2013-11-05 02:22:00,30.0,27.0,-100.00,WSW,244,7.0,14.0,88,0.00,,,0.22,0.000000,,2013-11-05 08:22:00,
2013-11-05 02:32:00,30.0,27.0,-100.00,WSW,244,7.0,14.0,88,0.00,,,0.22,0.000000,,2013-11-05 08:32:00,
2013-11-05 02:42:00,30.0,27.0,-100.00,WSW,244,7.0,14.0,88,0.00,,,0.22,0.000000,,2013-11-05 08:42:00,
2013-11-05 02:52:00,30.0,27.0,-100.00,WSW,244,7.0,14.0,88,0.00,,,0.22,0.000000,,2013-11-05 08:52:00,
2013-11-05 03:02:00,30.0,27.0,-100.00,WSW,244,7.0,14.0,88,0.00,,,0.22,0.000000,,2013-11-05 09:02:00,
2013-11-05 03:43:00,29.0,26.0,-100.00,WSW,240,5.0,12.0,88,0.00,,,0.22,0.000000,,2013-11-05 09:43:00,
2013-11-05 03:53:00,29.0,26.0,-100.00,WSW,240,5.0,12.0,88,0.00,,,0.22,0.000000,,2013-11-05 09:53:00,
2013-11-05 04:02:00,29.0,26.0,-100.00,WSW,240,5.0,12.0,88,0.00,,,0.22,0.000000,,2013-11-05 10:02:00,
2013-11-05 04:43:00,28.0,24.0,-100.00,WSW,243,5.0,12.0,84,0.00,,,0.22,0.000000,,2013-11-05 10:43:00,
2013-11-05 04:53:00,28.0,24.0,-100.00,WSW,243,5.0,12.0,84,0.00,,,0.22,0.000000,,2013-11-05 10:53:00,
2013-11-05 05:02:00,28.0,24.0,-100.00,WSW,243,5.0,12.0,84,0.00,,,0.22,0.000000,,2013-11-05 11:02:00,
2013-11-05 05:22:00,28.0,24.0,-100.00,WSW,248,8.0,14.0,86,0.00,,,0.21,0.000000,,2013-11-05 11:22:00,
2013-11-05 05:33:00,28.0,24.0,-100.00,WSW,248,8.0,14.0,86,0.00,,,0.21,0.000000,,2013-11-05 11:33:00,
2013-11-05 05:42:00,28.0,24.0,-100.00,WSW,248,8.0,14.0,86,0.00,,,0.21,0.000000,,2013-11-05 11:42:00,
2013-11-05 05:52:00,28.0,24.0,-100.00,WSW,248,8.0,14.0,86,0.00,,,0.21,0.000000,,2013-11-05 11:52:00,
2013-11-05 06:02:00,28.0,24.0,-100.00,WSW,248,8.0,14.0,86,0.00,,,0.21,0.000000,,2013-11-05 12:02:00,
2013-11-05 06:42:00,27.0,23.0,-100.00,WSW,252,6.0,11.0,83,0.00,,,0.20,0.000000,,2013-11-05 12:42:00,
2013-11-05 06:52:00,27.0,23.0,-100.00,WSW,252,6.0,11.0,83,0.00,,,0.20,0.000000,,2013-11-05 12:52:00,
2013-11-05 07:01:00,27.0,23.0,-100.00,WSW,252,6.0,11.0,83,0.00,,,0.20,0.000000,,2013-11-05 13:01:00,
2013-11-05 07:22:00,26.0,21.0,-100.00,WSW,250,5.0,11.0,81,0.00,,,0.20,1.000000,,2013-11-05 13:22:00,
2013-11-05 07:32:00,26.0,21.0,-100.00,WSW,250,5.0,11.0,81,0.00,,,0.20,1.000000,,2013-11-05 13:32:00,
2013-11-05 07:42:00,26.0,21.0,-100.00,WSW,250,5.0,11.0,81,0.00,,,0.20,1.000000,,2013-11-05 13:42:00,
2013-11-05 07:52:00,26.0,21.0,-100.00,WSW,250,5.0,11.0,81,0.00,,,0.20,1.000000,,2013-11-05 13:52:00,
2013-11-05 08:02:00,26.0,21.0,-100.00,WSW,250,5.0,11.0,81,0.00,,,0.20,1.000000,,2013-11-05 14:02:00,
2013-11-05 08:22:00,26.0,21.0,-100.00,WSW,251,4.0,10.0,81,0.00,,,0.20,32.000000,,2013-11-05 14:22:00,
2013-11-05 08:32:00,26.0,21.0,-100.00,WSW,251,4.0,10.0,81,0.00,,,0.20,32.000000,,2013-11-05 14:32:00,
2013-11-05 08:42:00,26.0,21.0,-100.00,WSW,251,4.0,10.0,81,0.00,,,0.20,32.000000,,2013-11-05 14:42:00,
2013-11-05 08:52:00,26.0,21.0,-100.00,WSW,251,4.0,10.0,81,0.00,,,0.20,32.000000,,2013-11-05 14:52:00,
2013-11-05 09:02:00,26.0,21.0,-100.00,WSW,251,4.0,10.0,81,0.00,,,0.20,32.000000,,2013-11-05 15:02:00,
2013-11-05 09:22:00,29.0,22.0,-100.00,WSW,246,5.0,10.0,76,0.00,,,0.19,115.000000,,2013-11-05 15:22:00,
2013-11-05 09:33:00,29.0,22.0,-100.00,WSW,246,5.0,10.0,76,0.00,,,0.19,115.000000,,2013-11-05 15:33:00,
2013-11-05 09:43:00,29.0,22.0,-100.00,WSW,246,5.0,10.0,76,0.00,,,0.19,115.000000,,2013-11-05 15:43:00,
2013-11-05 09:53:00,29.0,22.0,-100.00,WSW,246,5.0,10.0,76,0.00,,,0.19,115.000000,,2013-11-05 15:53:00,
2013-11-05 10:03:00,29.0,22.0,-100.00,WSW,246,5.0,10.0,76,0.00,,,0.19,115.000000,,2013-11-05 16:03:00,
2013-11-05 10:43:00,31.0,21.0,-100.00,West,262,5.0,12.0,66,0.00,,,0.19,296.000000,,2013-11-05 16:43:00,
2013-11-05 10:53:00,31.0,21.0,-100.00,West,262,5.0,12.0,66,0.00,,,0.19,296.000000,,2013-11-05 16:53:00,
2013-11-05 11:02:00,31.0,21.0,-100.00,West,262,5.0,12.0,66,0.00,,,0.19,296.000000,,2013-11-05 17:02:00,
2013-11-05 11:22:00,32.0,21.0,-100.00,WSW,244,6.0,14.0,63,0.00,,,0.19,299.000000,,2013-11-05 17:22:00,
2013-11-05 11:32:00,32.0,21.0,-100.00,WSW,244,6.0,14.0,63,0.00,,,0.19,299.000000,,2013-11-05 17:32:00,
2013-11-05 11:42:00,32.0,21.0,-100.00,WSW,244,6.0,14.0,63,0.00,,,0.19,299.000000,,2013-11-05 17:42:00,
2013-11-05 11:52:00,32.0,21.0,-100.00,WSW,244,6.0,14.0,63,0.00,,,0.19,299.000000,,2013-11-05 17:52:00,
2013-11-05 12:02:00,32.0,21.0,-100.00,WSW,244,6.0,14.0,63,0.00,,,0.19,299.000000,,2013-11-05 18:02:00,
2013-11-05 12:42:00,33.0,21.0,-100.00,WSW,247,6.0,13.0,62,0.00,,,0.19,306.000000,,2013-11-05 18:42:00,
2013-11-05 12:52:00,33.0,21.0,-100.00,WSW,247,6.0,13.0,62,0.00,,,0.19,306.000000,,2013-11-05 18:52:00,
2013-11-05 13:02:00,33.0,21.0,-100.00,WSW,247,6.0,13.0,62,0.00,,,0.19,306.000000,,2013-11-05 19:02:00,
2013-11-05 13:42:00,33.0,21.0,-100.00,SW,235,6.0,12.0,62,0.00,,,0.19,222.000000,,2013-11-05 19:42:00,
2013-11-05 13:52:00,33.0,21.0,-100.00,SW,235,6.0,12.0,62,0.00,,,0.19,222.000000,,2013-11-05 19:52:00,
2013-11-05 14:02:00,33.0,21.0,-100.00,SW,235,6.0,12.0,62,0.00,,,0.19,222.000000,,2013-11-05 20:02:00,
2013-11-05 14:22:00,33.0,22.0,-100.00,SW,235,5.0,12.0,64,0.00,,,0.13,170.000000,,2013-11-05 20:22:00,
2013-11-05 14:32:00,33.0,22.0,-100.00,SW,235,5.0,12.0,64,0.00,,,0.13,170.000000,,2013-11-05 20:32:00,
2013-11-05 14:43:00,33.0,22.0,-100.00,SW,235,5.0,12.0,64,0.00,,,0.13,170.000000,,2013-11-05 20:43:00,
2013-11-05 14:53:00,33.0,22.0,-100.00,SW,235,5.0,12.0,64,0.00,,,0.13,170.000000,,2013-11-05 20:53:00,
2013-11-05 15:02:00,33.0,22.0,-100.00,SW,235,5.0,12.0,64,0.00,,,0.13,170.000000,,2013-11-05 21:02:00,
2013-11-05 15:04:00,32.0,21.0,-100.00,SW,234,5.0,13.0,63,0.00,,,0.07,116.000000,,2013-11-05 21:04:00,
2013-11-05 15:22:00,32.0,21.0,-100.00,SW,234,5.0,13.0,63,0.00,,,0.07,116.000000,,2013-11-05 21:22:00,
2013-11-05 15:33:00,32.0,21.0,-100.00,SW,234,5.0,13.0,63,0.00,,,0.07,116.000000,,2013-11-05 21:33:00,
2013-11-05 15:44:00,32.0,21.0,-100.00,SW,234,5.0,13.0,63,0.00,,,0.07,116.000000,,2013-11-05 21:44:00,
2013-11-05 15:54:00,32.0,21.0,-100.00,SW,234,5.0,13.0,63,0.00,,,0.07,116.000000,,2013-11-05 21:54:00,
2013-11-05 16:23:00,32.0,22.0,-100.00,WSW,247,4.0,10.0,67,0.00,,,0.04,61.000000,,2013-11-05 22:23:00,
2013-11-05 16:34:00,32.0,22.0,-100.00,WSW,247,4.0,10.0,67,0.00,,,0.04,61.000000,,2013-11-05 22:34:00,
2013-11-05 16:44:00,32.0,22.0,-100.00,WSW,247,4.0,10.0,67,0.00,,,0.04,61.000000,,2013-11-05 22:44:00,
2013-11-05 16:53:00,32.0,22.0,-100.00,WSW,247,4.0,10.0,67,0.00,,,0.04,61.000000,,2013-11-05 22:53:00,
2013-11-05 17:03:00,32.0,22.0,-100.00,WSW,247,4.0,10.0,67,0.00,,,0.04,61.000000,,2013-11-05 23:03:00,
2013-11-05 17:42:00,30.0,21.0,-100.00,West,262,3.0,8.0,70,0.00,,,0.02,9.000000,,2013-11-05 23:42:00,
2013-11-05 17:53:00,30.0,21.0,-100.00,West,262,3.0,8.0,70,0.00,,,0.02,9.000000,,2013-11-05 23:53:00,
2013-11-05 18:03:00,30.0,21.0,-100.00,West,262,3.0,8.0,70,0.00,,,0.02,9.000000,,2013-11-06 00:03:00,
2013-11-05 18:22:00,30.0,22.0,-100.00,SW,228,3.0,6.0,72,0.00,,,0.01,0.000000,,2013-11-06 00:22:00,
2013-11-05 18:32:00,30.0,22.0,-100.00,SW,228,3.0,6.0,72,0.00,,,0.01,0.000000,,2013-11-06 00:32:00,
2013-11-05 18:42:00,30.0,22.0,-100.00,SW,228,3.0,6.0,72,0.00,,,0.01,0.000000,,2013-11-06 00:42:00,
2013-11-05 18:52:00,30.0,22.0,-100.00,SW,228,3.0,6.0,72,0.00,,,0.01,0.000000,,2013-11-06 00:52:00,
2013-11-05 19:02:00,30.0,22.0,-100.00,SW,228,3.0,6.0,72,0.00,,,0.01,0.000000,,2013-11-06 01:02:00,
2013-11-05 19:22:00,29.0,22.0,-100.00,WSW,247,2.0,5.0,76,0.00,,,0.00,0.000000,,2013-11-06 01:22:00,
2013-11-05 19:32:00,29.0,22.0,-100.00,WSW,247,2.0,5.0,76,0.00,,,0.00,0.000000,,2013-11-06 01:32:00,
2013-11-05 19:42:00,29.0,22.0,-100.00,WSW,247,2.0,5.0,76,0.00,,,0.00,0.000000,,2013-11-06 01:42:00,
2013-11-05 19:52:00,29.0,22.0,-100.00,WSW,247,2.0,5.0,76,0.00,,,0.00,0.000000,,2013-11-06 01:52:00,
2013-11-05 20:02:00,29.0,22.0,-100.00,WSW,247,2.0,5.0,76,0.00,,,0.00,0.000000,,2013-11-06 02:02:00,
2013-11-05 20:42:00,29.0,23.0,-100.00,West,260,3.0,5.0,77,0.00,,,0.00,0.000000,,2013-11-06 02:42:00,
2013-11-05 20:52:00,29.0,23.0,-100.00,West,260,3.0,5.0,77,0.00,,,0.00,0.000000,,2013-11-06 02:52:00,
2013-11-05 21:02:00,29.0,23.0,-100.00,West,260,3.0,5.0,77,0.00,,,0.00,0.000000,,2013-11-06 03:02:00,
2013-11-05 21:04:00,28.0,23.0,-100.00,WSW,258,1.0,4.0,80,0.00,,,0.00,0.000000,,2013-11-06 03:04:00,
2013-11-05 21:44:00,28.0,23.0,-100.00,WSW,258,1.0,4.0,80,0.00,,,0.00,0.000000,,2013-11-06 03:44:00,
2013-11-05 21:55:00,28.0,23.0,-100.00,WSW,258,1.0,4.0,80,0.00,,,0.00,0.000000,,2013-11-06 03:55:00,
2013-11-05 22:43:00,28.0,23.0,-100.00,WSW,256,2.0,4.0,80,0.00,,,0.00,0.000000,,2013-11-06 04:43:00,
2013-11-05 22:53:00,28.0,23.0,-100.00,WSW,256,2.0,4.0,80,0.00,,,0.00,0.000000,,2013-11-06 04:53:00,
2013-11-05 23:03:00,28.0,23.0,-100.00,WSW,256,2.0,4.0,80,0.00,,,0.00,0.000000,,2013-11-06 05:03:00,
2013-11-05 23:44:00,28.0,23.0,-100.00,West,259,2.0,4.0,81,0.00,,,0.00,0.000000,,2013-11-06 05:44:00,
2013-11-05 23:53:00,28.0,23.0,-100.00,West,259,2.0,4.0,81,0.00,,,0.00,0.000000,,2013-11-06 05:53:00,